| time (UTC) | temp F | wind direction | speed knots | gust knots | rain 1hr in | rain 24hr in | rain mn in | humidity % | barometer mb |
| 20260502200001 | 64 | 107 | 0.0 | 0.0 | 0.00 | 0.00 | 0.00 | 50 | 1019.2 |
| 20260502194532 | 66 | 107 | 0.0 | 1.7 | 0.00 | 0.00 | 0.00 | 46 | 1018.9 |
| 20260502193008 | 67 | 107 | 0.0 | 2.6 | 0.00 | 0.00 | 0.00 | 44 | 1018.6 |
| 20260502191546 | 68 | 107 | 0.9 | 3.5 | 0.00 | 0.00 | 0.00 | 44 | 1018.3 |
| 20260502190021 | 69 | 107 | 0.9 | 3.5 | 0.00 | 0.00 | 0.00 | 42 | 1018.0 |
| 20260502184550 | 69 | 107 | 1.7 | 3.5 | 0.00 | 0.00 | 0.00 | 39 | 1017.8 |
| 20260502183012 | 71 | 107 | 0.0 | 0.9 | 0.00 | 0.00 | 0.00 | 40 | 1017.6 |
| 20260502181546 | 71 | 107 | 0.0 | 2.6 | 0.00 | 0.00 | 0.00 | 40 | 1017.3 |
| 20260502163040 | 77 | 107 | 0.9 | 5.2 | 0.00 | 0.00 | 0.00 | 30 | 1016.6 |
| 20260502161622 | 78 | 107 | 0.9 | 3.5 | 0.00 | 0.00 | 0.00 | 30 | 1016.7 |
| 20260502151505 | 76 | 107 | 0.0 | 7.8 | 0.00 | 0.00 | 0.00 | 36 | 1017.3 |
| 20260502123115 | 74 | 143 | 0.9 | 3.5 | 0.00 | 0.00 | 0.00 | 36 | 1020.2 |
| 20260502121528 | 72 | 143 | 0.9 | 6.1 | 0.00 | 0.00 | 0.00 | 39 | 1020.4 |
| 20260502120119 | 71 | 143 | 0.9 | 6.1 | 0.00 | 0.00 | 0.00 | 39 | 1020.7 |
| 20260502114520 | 72 | 143 | 0.9 | 2.6 | 0.00 | 0.00 | 0.00 | 38 | 1021.1 |
| 20260502113053 | 70 | 143 | 1.7 | 4.3 | 0.00 | 0.00 | 0.00 | 37 | 1021.6 |
| 20260502111522 | 69 | 143 | 0.9 | 4.3 | 0.00 | 0.00 | 0.00 | 38 | 1021.9 |
| 20260502110054 | 68 | 143 | 0.0 | 3.5 | 0.00 | 0.00 | 0.00 | 39 | 1022.2 |
| 20260502104518 | 69 | 143 | 0.0 | 6.1 | 0.00 | 0.00 | 0.00 | 40 | 1022.6 |
| 20260502103048 | 68 | 143 | 0.0 | 2.6 | 0.00 | 0.00 | 0.00 | 40 | 1022.9 |
| 20260502101525 | 67 | 143 | 0.0 | 3.5 | 0.00 | 0.00 | 0.00 | 42 | 1023.2 |
| 20260502100103 | 66 | 143 | 0.0 | 2.6 | 0.00 | 0.00 | 0.00 | 45 | 1023.6 |
| 20260502091529 | 63 | 143 | 0.0 | 3.5 | 0.00 | 0.00 | 0.00 | 48 | 1024.3 |
| 20260502090104 | 62 | 143 | 0.0 | 3.5 | 0.00 | 0.00 | 0.00 | 51 | 1024.6 |
| 20260502080109 | 59 | 143 | 0.9 | 4.3 | 0.00 | 0.00 | 0.00 | 55 | 1025.7 |
| 20260502070015 | 56 | 143 | 0.0 | 1.7 | 0.00 | 0.00 | 0.00 | 64 | 1026.5 |
| 20260502064636 | 55 | 143 | 0.0 | 0.9 | 0.00 | 0.00 | 0.00 | 65 | 1026.7 |
| 20260502063002 | 53 | 143 | 0.0 | 0.0 | 0.00 | 0.00 | 0.00 | 68 | 1026.8 |
| 20260502061534 | 52 | 143 | 0.0 | 0.0 | 0.00 | 0.00 | 0.00 | 71 | 1027.0 |
| 20260502060004 | 50 | 143 | 0.0 | 0.0 | 0.00 | 0.00 | 0.00 | 75 | 1027.1 |
| 20260502054534 | 48 | 143 | 0.0 | 0.0 | 0.00 | 0.00 | 0.00 | 78 | 1027.2 |
| 20260502053101 | 46 | 143 | 0.0 | 0.0 | 0.00 | 0.00 | 0.00 | 80 | 1027.1 |
| 20260502051535 | 45 | 143 | 0.0 | 0.0 | 0.00 | 0.00 | 0.00 | 81 | 1027.1 |
| 20260502044535 | 45 | 143 | 0.0 | 0.0 | 0.00 | 0.00 | 0.00 | 81 | 1027.0 |
| 20260502043014 | 45 | 143 | 0.0 | 0.0 | 0.00 | 0.00 | 0.00 | 80 | 1027.0 |
| 20260502041538 | 45 | 143 | 0.0 | 0.0 | 0.00 | 0.00 | 0.00 | 80 | 1026.9 |
| 20260502040022 | 46 | 143 | 0.0 | 0.0 | 0.00 | 0.00 | 0.00 | 79 | 1026.8 |
| 20260502034602 | 46 | 143 | 0.0 | 0.0 | 0.00 | 0.00 | 0.00 | 78 | 1026.7 |
| 20260502033031 | 46 | 143 | 0.0 | 0.0 | 0.00 | 0.00 | 0.00 | 78 | 1026.6 |
| 20260502031511 | 45 | 143 | 0.0 | 0.0 | 0.00 | 0.00 | 0.00 | 80 | 1026.6 |
| 20260502030047 | 46 | 143 | 0.0 | 0.0 | 0.00 | 0.00 | 0.00 | 80 | 1026.6 |
| 20260502024522 | 46 | 143 | 0.0 | 0.0 | 0.00 | 0.00 | 0.00 | 78 | 1026.6 |
| 20260502023046 | 46 | 143 | 0.0 | 0.0 | 0.00 | 0.00 | 0.00 | 79 | 1026.4 |
| 20260502021518 | 46 | 143 | 0.0 | 0.0 | 0.00 | 0.00 | 0.00 | 78 | 1026.4 |
| 20260502020038 | 46 | 143 | 0.0 | 0.0 | 0.00 | 0.00 | 0.00 | 78 | 1026.3 |
| 20260502014509 | 47 | 143 | 0.0 | 0.0 | 0.00 | 0.00 | 0.00 | 77 | 1026.2 |
| 20260502013030 | 47 | 143 | 0.0 | 0.0 | 0.00 | 0.00 | 0.00 | 76 | 1026.3 |
| 20260502011515 | 48 | 143 | 0.0 | 0.0 | 0.00 | 0.00 | 0.00 | 75 | 1026.3 |
| 20260502010046 | 48 | 143 | 0.0 | 0.0 | 0.00 | 0.00 | 0.00 | 75 | 1026.2 |
| 20260502004522 | 48 | 143 | 0.0 | 0.0 | 0.00 | 0.00 | 0.00 | 74 | 1026.2 |
| 20260502003054 | 49 | 143 | 0.0 | 0.0 | 0.00 | 0.00 | 0.00 | 72 | 1026.2 |
| 20260502001526 | 49 | 143 | 0.0 | 0.0 | 0.00 | 0.00 | 0.00 | 72 | 1026.2 |
| 20260502000107 | 49 | 143 | 0.0 | 0.0 | 0.00 | 0.00 | 0.00 | 72 | 1026.1 |
| 20260501234535 | 49 | 143 | 0.0 | 0.0 | 0.00 | 0.00 | 0.00 | 73 | 1026.2 |
| 20260501233104 | 50 | 143 | 0.0 | 0.0 | 0.00 | 0.00 | 0.00 | 72 | 1026.1 |
| 20260501231529 | 51 | 143 | 0.0 | 0.0 | 0.00 | 0.00 | 0.00 | 70 | 1026.0 |
| 20260501230106 | 51 | 143 | 0.0 | 0.0 | 0.00 | 0.00 | 0.00 | 69 | 1025.8 |
| 20260501224536 | 50 | 143 | 0.0 | 0.0 | 0.00 | 0.00 | 0.00 | 71 | 1025.8 |
| 20260501223003 | 51 | 143 | 0.0 | 0.0 | 0.00 | 0.00 | 0.00 | 68 | 1025.7 |
| 20260501221553 | 52 | 143 | 0.0 | 0.0 | 0.00 | 0.00 | 0.00 | 67 | 1025.6 |
| 20260501220032 | 53 | 143 | 0.0 | 0.0 | 0.00 | 0.00 | 0.00 | 65 | 1025.3 |
| 20260501214500 | 55 | 143 | 0.0 | 0.0 | 0.00 | 0.00 | 0.00 | 61 | 1025.1 |
| 20260501213037 | 56 | 143 | 0.0 | 0.0 | 0.00 | 0.00 | 0.00 | 58 | 1025.1 |
| 20260501211517 | 57 | 143 | 0.0 | 0.0 | 0.00 | 0.00 | 0.00 | 55 | 1024.8 |
| 20260501210048 | 58 | 143 | 0.0 | 0.0 | 0.00 | 0.00 | 0.00 | 52 | 1024.7 |
| 20260501204524 | 59 | 143 | 0.0 | 0.0 | 0.00 | 0.00 | 0.00 | 50 | 1024.5 |
| 20260501203006 | 60 | 143 | 0.0 | 2.6 | 0.00 | 0.00 | 0.00 | 48 | 1024.2 |
| 20260501201555 | 60 | 143 | 0.9 | 2.6 | 0.00 | 0.00 | 0.00 | 47 | 1024.0 |